Location: Newark
(45.6000°N, 12.8833°E)
Time: 04:16:27
(UTC+00:00)

Transit 4A - All Passes

Search period start: 17 November 2019 00:00
Search period end: 27 November 2019 00:00
Orbit: 868 x 976 km, 66.8° (Epoch: 16 November)

Date Brightness Start Highest point End Pass type
(mag) Time Alt. Az. Time Alt. Az. Time Alt. Az.
17 Nov - 03:16:35 10° N 03:18:40 12° NNE 03:20:46 10° NE visible
17 Nov - 05:01:42 10° NNW 05:07:03 33° NE 05:12:17 10° ESE visible
17 Nov - 06:47:56 10° NW 06:53:39 52° WSW 06:59:14 10° S daylight
17 Nov - 20:11:29 10° SSE 20:16:32 26° ESE 20:21:30 10° NE night (unlit)
17 Nov - 21:56:17 10° SW 22:02:29 63° NW 22:08:34 10° NNE night (unlit)
17 Nov - 23:45:58 10° WNW 23:50:05 18° NNW 23:54:08 10° N night (unlit)
18 Nov - 03:25:32 10° N 03:28:36 14° NNE 03:31:37 10° NE visible
18 Nov - 05:10:55 10° NNW 05:16:36 45° NE 05:22:09 10° ESE visible
18 Nov - 06:57:32 10° NW 07:02:49 35° WSW 07:08:01 10° S daylight
18 Nov - 20:19:58 10° S 20:25:40 38° ESE 20:31:16 10° NE night (unlit)
18 Nov - 22:05:58 10° WSW 22:11:57 46° NW 22:17:49 10° NNE night (unlit)
18 Nov - 23:56:37 10° WNW 23:59:55 15° NNW 00:03:12 10° N night (unlit)
19 Nov - 03:34:36 10° N 03:38:27 17° NNE 03:42:14 10° ENE visible
19 Nov - 05:20:10 10° NNW 05:26:04 62° NE 05:31:49 10° SE visible
19 Nov - 07:07:21 10° NW 07:11:55 24° WSW 07:16:25 10° SSW daylight
19 Nov - 20:28:47 10° S 20:34:52 54° ESE 20:40:50 10° NE night (unlit)
19 Nov - 22:15:53 10° WSW 22:21:30 34° NW 22:27:01 10° NNE night (unlit)
20 Nov - 00:07:29 10° NW 00:09:50 12° NNW 00:12:10 10° N night (unlit)
20 Nov - 03:43:42 10° NNW 03:48:13 22° NE 03:52:39 10° E visible
20 Nov - 05:29:29 10° NNW 05:35:26 87° ENE 05:41:16 10° SSE visible
20 Nov - 07:17:34 10° WNW 07:20:56 16° WSW 07:24:16 10° SW daylight
20 Nov - 18:55:54 10° SE 18:58:44 13° ESE 19:01:33 10° ENE night (unlit)
20 Nov - 20:37:52 10° SSW 20:44:09 77° ESE 20:50:16 10° NE night (unlit)
20 Nov - 22:25:59 10° W 22:31:08 26° NW 22:36:11 10° NNE night (unlit)
21 Nov - 00:18:45 10° NNW 00:19:48 10° NNW 00:20:51 10° N night (unlit)
21 Nov - 02:08:01 10° N 02:09:19 11° NNE 02:10:34 10° NNE visible
21 Nov - 03:52:51 10° NNW 03:57:53 28° NE 04:02:51 10° E visible
21 Nov - 05:38:53 10° NW 05:44:44 66° WSW 05:50:28 10° SSE visible
21 Nov - 19:03:20 10° SSE 19:07:45 20° ESE 19:12:06 10° ENE night (unlit)
21 Nov - 20:47:12 10° SW 20:53:29 77° WNW 20:59:37 10° NNE night (unlit)
21 Nov - 22:36:18 10° W 22:40:50 21° NW 22:45:19 10° NNE night (unlit)
22 Nov - 02:16:49 10° N 02:19:16 12° NNE 02:21:42 10° NE visible
22 Nov - 04:02:02 10° NNW 04:07:30 37° NE 04:12:51 10° ESE visible
22 Nov - 05:48:23 10° NW 05:53:57 45° WSW 05:59:26 10° S daylight
22 Nov - 19:11:32 10° SSE 19:16:50 30° ESE 19:22:03 10° NE night (unlit)
22 Nov - 20:56:46 10° SW 21:02:54 56° NW 21:08:55 10° NNE night (unlit)
22 Nov - 22:46:49 10° WNW 22:50:38 17° NNW 22:54:24 10° N night (unlit)
23 Nov - 02:25:49 10° N 02:29:09 15° NNE 02:32:27 10° ENE visible
23 Nov - 04:11:15 10° NNW 04:17:01 50° NE 04:22:39 10° SE visible
23 Nov - 05:58:03 10° NW 06:03:06 31° WSW 06:08:05 10° S daylight
23 Nov - 19:20:08 10° S 19:26:00 43° ESE 19:31:44 10° NE night (unlit)
23 Nov - 21:06:33 10° WSW 21:12:24 41° NW 21:18:08 10° NNE night (unlit)
23 Nov - 22:57:33 10° NW 23:00:30 14° NNW 23:03:25 10° N night (unlit)
24 Nov - 02:34:53 10° NNW 02:38:58 19° NNE 02:43:00 10° ENE visible
24 Nov - 04:20:32 10° NNW 04:26:26 70° NE 04:32:14 10° SE visible
24 Nov - 06:07:58 10° WNW 06:12:11 21° WSW 06:16:20 10° SSW daylight
24 Nov - 19:29:04 10° SSW 19:35:13 62° ESE 19:41:15 10° NE night (unlit)
24 Nov - 21:16:32 10° WSW 21:21:58 31° NW 21:27:19 10° NNE night (unlit)
24 Nov - 23:08:32 10° NW 23:10:26 11° NNW 23:12:19 10° N night (unlit)
25 Nov - 02:44:00 10° NNW 02:48:43 24° NE 02:53:20 10° E visible
25 Nov - 04:29:52 10° NW 04:35:48 83° WSW 04:41:36 10° SSE visible
25 Nov - 06:18:30 10° WNW 06:21:10 13° WSW 06:23:50 10° SW daylight
25 Nov - 17:55:29 10° SE 17:58:59 16° ESE 18:02:28 10° ENE visible
25 Nov - 19:38:15 10° SSW 19:44:31 87° ESE 19:50:39 10° NNE visible
25 Nov - 21:26:42 10° W 21:31:37 24° NW 21:36:28 10° NNE night (unlit)
26 Nov - 01:08:12 10° N 01:09:54 11° NNE 01:11:37 10° NE visible
26 Nov - 02:53:10 10° NNW 02:58:22 31° NE 03:03:28 10° ESE visible
26 Nov - 04:39:18 10° NW 04:45:04 57° WSW 04:50:43 10° SSE visible
26 Nov - 18:03:15 10° SSE 18:08:02 23° ESE 18:12:44 10° ENE visible
26 Nov - 19:47:39 10° SW 19:53:53 69° NW 19:59:59 10° NNE visible
26 Nov - 21:37:06 10° WNW 21:41:22 19° NNW 21:45:35 10° NNE night (unlit)
